• In Czech Republic
  • List of Countries
  • For 7 days
  • Water Temperature
  • Satellite Maps
  • Weather Map
  • Weather Widgets
  • user-avatar
    Login

    Hourly Weather Jarim

    Today, 17 January, Wednesday

    Time Temperature Precipitation Wind Pressure Humidity
    00:00 +9°C° 0 mm 1 mps 553 mmHg 28%
    01:00 +8°C° 0 mm 1 mps 552 mmHg 27%
    02:00 +8°C° 0 mm 1 mps 552 mmHg 27%
    03:00 +6°C° 0 mm 0 mps 551 mmHg 29%
    04:00 +6°C° 0 mm 0 mps 551 mmHg 28%
    05:00 +5°C° 0 mm 0 mps 551 mmHg 28%
    06:00 +5°C° 0 mm 0 mps 550 mmHg 28%
    07:00 +7°C° 0 mm 0 mps 552 mmHg 26%
    08:00 +10°C° 0 mm 1 mps 553 mmHg 24%
    09:00 +12°C° 0 mm 1 mps 554 mmHg 22%
    10:00 +13°C° 0 mm 1 mps 555 mmHg 22%
    11:00 +15°C° 0 mm 2 mps 555 mmHg 22%
    12:00 +16°C° 0 mm 2 mps 556 mmHg 22%
    13:00 +17°C° 0 mm 3 mps 555 mmHg 23%
    14:00 +17°C° 0 mm 3 mps 555 mmHg 24%
    15:00 +18°C° 0 mm 4 mps 555 mmHg 25%
    16:00 +17°C° 0 mm 3 mps 554 mmHg 31%
    17:00 +14°C° 0 mm 3 mps 554 mmHg 36%
    18:00 +13°C° 0 mm 3 mps 553 mmHg 42%
    19:00 +13°C° 0 mm 2 mps 553 mmHg 47%
    20:00 +12°C° 0 mm 2 mps 553 mmHg 53%
    21:00 +11°C° 0 mm 1 mps 553 mmHg 58%
    22:00 +11°C° 0 mm 1 mps 552 mmHg 61%
    23:00 +10°C° 0 mm 1 mps 552 mmHg 65%

    Tomorrow, 18 January, Thursday

    Time Temperature Precipitation Wind Pressure Humidity
    00:00 +9°C° 0 mm 0 mps 552 mmHg 68%
    01:00 +8°C° 0 mm 0 mps 551 mmHg 71%
    02:00 +8°C° 0 mm 0 mps 551 mmHg 74%
    03:00 +7°C° 0 mm 0 mps 550 mmHg 77%
    04:00 +7°C° 0 mm 0 mps 550 mmHg 77%
    05:00 +6°C° 0 mm 0 mps 550 mmHg 77%
    06:00 +6°C° 0 mm 0 mps 550 mmHg 77%
    07:00 +9°C° 0 mm 1 mps 551 mmHg 65%
    08:00 +11°C° 0 mm 1 mps 553 mmHg 52%
    09:00 +13°C° 0 mm 1 mps 554 mmHg 40%
    10:00 +14°C° 0 mm 2 mps 555 mmHg 35%
    11:00 +16°C° 0 mm 2 mps 555 mmHg 29%
    12:00 +17°C° 0 mm 3 mps 556 mmHg 24%
    13:00 +17°C° 0 mm 3 mps 555 mmHg 25%
    14:00 +17°C° 0 mm 4 mps 555 mmHg 26%
    15:00 +18°C° 0 mm 4 mps 555 mmHg 27%
    16:00 +17°C° 0 mm 4 mps 554 mmHg 33%
    17:00 +14°C° 0 mm 4 mps 554 mmHg 38%
    18:00 +13°C° 0 mm 3 mps 553 mmHg 43%
    19:00 +13°C° 0 mm 2 mps 553 mmHg 47%
    20:00 +13°C° 0 mm 2 mps 553 mmHg 51%
    21:00 +12°C° 0 mm 1 mps 553 mmHg 55%
    22:00 +11°C° 0 mm 1 mps 553 mmHg 57%
    23:00 +10°C° 0 mm 0 mps 552 mmHg 59%

    Day after tomorrow, 19 January, Friday

    Time Temperature Precipitation Wind Pressure Humidity
    00:00 +9°C° 0 mm 0 mps 552 mmHg 62%
    01:00 +8°C° 0 mm 0 mps 551 mmHg 64%
    02:00 +8°C° 0 mm 0 mps 551 mmHg 65%
    03:00 +7°C° 0 mm 0 mps 550 mmHg 67%
    04:00 +7°C° 0 mm 0 mps 550 mmHg 69%
    05:00 +6°C° 0 mm 0 mps 550 mmHg 70%
    06:00 +6°C° 0 mm 0 mps 550 mmHg 72%
    07:00 +8°C° 0 mm 0 mps 552 mmHg 60%
    08:00 +11°C° 0 mm 1 mps 553 mmHg 49%
    09:00 +13°C° 0 mm 1 mps 555 mmHg 38%
    10:00 +14°C° 0 mm 2 mps 555 mmHg 33%
    11:00 +16°C° 0 mm 3 mps 555 mmHg 29%
    12:00 +17°C° 0 mm 3 mps 556 mmHg 25%
    13:00 +17°C° 0 mm 4 mps 555 mmHg 26%
    14:00 +18°C° 0 mm 4 mps 555 mmHg 27%
    15:00 +18°C° 0 mm 4 mps 555 mmHg 28%
    16:00 +17°C° 0 mm 4 mps 554 mmHg 32%
    17:00 +15°C° 0 mm 4 mps 554 mmHg 37%
    18:00 +13°C° 0 mm 4 mps 554 mmHg 42%
    19:00 +13°C° 0 mm 3 mps 554 mmHg 47%
    20:00 +13°C° 0 mm 2 mps 554 mmHg 51%
    21:00 +12°C° 0 mm 1 mps 554 mmHg 56%
    22:00 +11°C° 0 mm 1 mps 554 mmHg 59%
    23:00 +11°C° 0 mm 1 mps 553 mmHg 62%

    20 January, Saturday

    Time Temperature Precipitation Wind Pressure Humidity
    00:00 +11°C° 0 mm 1 mps 553 mmHg 65%
    01:00 +10°C° 0 mm 1 mps 553 mmHg 68%
    02:00 +9°C° 0 mm 1 mps 552 mmHg 72%
    03:00 +9°C° 0 mm 1 mps 551 mmHg 75%
    04:00 +7°C° 0 mm 0 mps 551 mmHg 76%
    05:00 +7°C° 0 mm 0 mps 551 mmHg 77%
    06:00 +7°C° 0 mm 0 mps 551 mmHg 79%
    07:00 +9°C° 0 mm 1 mps 553 mmHg 68%
    08:00 +11°C° 0 mm 1 mps 554 mmHg 58%
    09:00 +13°C° 0 mm 1 mps 556 mmHg 48%
    10:00 +14°C° 0 mm 1 mps 556 mmHg 43%
    11:00 +15°C° 0 mm 2 mps 556 mmHg 38%
    12:00 +16°C° 0 mm 2 mps 557 mmHg 33%
    13:00 +17°C° 0 mm 2 mps 556 mmHg 34%
    14:00 +17°C° 0 mm 3 mps 556 mmHg 35%
    15:00 +17°C° 0 mm 3 mps 555 mmHg 36%
    16:00 +16°C° 0 mm 3 mps 555 mmHg 41%
    17:00 +14°C° 0 mm 3 mps 555 mmHg 47%
    18:00 +13°C° 0 mm 3 mps 555 mmHg 52%
    19:00 +14°C° 0 mm 2 mps 555 mmHg 53%
    20:00 +13°C° 0 mm 2 mps 555 mmHg 54%
    21:00 +13°C° 0 mm 2 mps 555 mmHg 55%
    22:00 +12°C° 0 mm 2 mps 555 mmHg 52%
    23:00 +12°C° 0 mm 2 mps 555 mmHg 50%

    21 January, Sunday

    Time Temperature Precipitation Wind Pressure Humidity
    00:00 +10°C° 0 mm 2 mps 554 mmHg 48%
    01:00 +10°C° 0 mm 2 mps 554 mmHg 48%
    02:00 +9°C° 0 mm 2 mps 553 mmHg 48%
    03:00 +9°C° 0 mm 2 mps 553 mmHg 48%
    04:00 +8°C° 0 mm 2 mps 553 mmHg 47%
    05:00 +8°C° 0 mm 2 mps 553 mmHg 47%
    06:00 +7°C° 0 mm 2 mps 553 mmHg 47%
    07:00 +8°C° 0 mm 3 mps 554 mmHg 42%
    08:00 +9°C° 0 mm 3 mps 555 mmHg 38%
    09:00 +10°C° 0 mm 3 mps 556 mmHg 34%
    10:00 +12°C° 0 mm 3 mps 556 mmHg 31%
    11:00 +13°C° 0 mm 3 mps 556 mmHg 28%
    12:00 +14°C° 0 mm 3 mps 557 mmHg 26%
    13:00 +14°C° 0 mm 3 mps 556 mmHg 26%
    14:00 +16°C° 0 mm 3 mps 556 mmHg 26%
    15:00 +16°C° 0 mm 3 mps 556 mmHg 26%
    16:00 +14°C° 0 mm 3 mps 555 mmHg 31%
    17:00 +13°C° 0 mm 4 mps 555 mmHg 36%
    18:00 +12°C° 0 mm 4 mps 555 mmHg 41%
    19:00 +12°C° 0 mm 3 mps 555 mmHg 43%
    20:00 +12°C° 0 mm 2 mps 555 mmHg 45%
    21:00 +10°C° 0 mm 2 mps 555 mmHg 46%
    22:00 +11°C° 0 mm 1 mps 554 mmHg 45%
    23:00 +10°C° 0 mm 1 mps 554 mmHg 43%

    22 January, Monday

    Time Temperature Precipitation Wind Pressure Humidity
    00:00 +10°C° 0 mm 1 mps 553 mmHg 42%
    01:00 +9°C° 0 mm 1 mps 553 mmHg 41%
    02:00 +9°C° 0 mm 1 mps 552 mmHg 40%
    03:00 +8°C° 0 mm 1 mps 552 mmHg 39%
    04:00 +8°C° 0 mm 1 mps 552 mmHg 39%
    05:00 +7°C° 0 mm 1 mps 551 mmHg 39%
    06:00 +7°C° 0 mm 1 mps 551 mmHg 39%
    07:00 +9°C° 0 mm 1 mps 553 mmHg 35%
    08:00 +10°C° 0 mm 1 mps 554 mmHg 32%
    09:00 +12°C° 0 mm 1 mps 555 mmHg 28%
    10:00 +14°C° 0 mm 1 mps 556 mmHg 27%
    11:00 +15°C° 0 mm 1 mps 556 mmHg 25%
    12:00 +17°C° 0 mm 2 mps 556 mmHg 24%
    13:00 +17°C° 0 mm 2 mps 556 mmHg 24%
    14:00 +18°C° 0 mm 2 mps 555 mmHg 24%
    15:00 +18°C° 0 mm 3 mps 555 mmHg 24%
    16:00 +17°C° 0 mm 3 mps 555 mmHg 29%
    17:00 +16°C° 0 mm 3 mps 554 mmHg 34%
    18:00 +14°C° 0 mm 3 mps 554 mmHg 39%
    19:00 +14°C° 0 mm 2 mps 554 mmHg 44%
    20:00 +13°C° 0 mm 1 mps 554 mmHg 49%
    21:00 +12°C° 0 mm 1 mps 553 mmHg 54%
    22:00 +11°C° 0 mm 1 mps 553 mmHg 55%
    23:00 +10°C° 0 mm 0 mps 552 mmHg 55%
    Show more